Miscellaneous Local Product
Issued by NWS North Platte, NE

Home | Current Version | Previous Version | Graphics & Text | Print | Product List | Glossary On
Versions: 1 2 3 4 5 6 7 8 9 10 11 12 13 14 15 16 17 18 19 20 21 22 23 24 25 26 27 28 29 30 31 32 33 34 35 36 37 38 39 40 41 42 43 44 45 46 47 48 49 50
000
AXUS43 KLBF 010210
MISLBF


WESTERN AND NORTH CENTRAL NEBRASKA HOURLY WEATHER ROUNDUP
NATIONAL WEATHER SERVICE NORTH PLATTE NE
800 PM CST SAT FEB 28 2015

***STATIONS NOT REPORTING VARIABLES SUCH AS SKY/WEATHER OR
PRESSURE ARE PROVIDED BY THE NEBRASKA DEPARTMENT OF
ROADS...RAWS...AND APRS NETWORKS...AND ARE NOT UNDER
NATIONAL WEATHER SERVICE QUALITY CONTROL***

...OBSERVATIONS IN AND NEAR THE EASTERN PANHANDLE OF NEBRASKA...

CITY           SKY/WX    TMP DP  RH WIND       PRES   REMARKS
PINE RIDGE     PTCLDY    18   7  62 E5        30.12R WCI  11
CHADRON        CLEAR     21  13  71 S6        30.11R WCI  13
ALLIANCE       PTCLDY    22  10  60 E5        30.07R WCI  16
SIDNEY         PTCLDY    20  13  74 SE6       30.04S WCI  12
WHITECLAY        N/A     22   6  51 CALM        N/A
CRESCENT LAKE    N/A     22   9  57 SE3         N/A
LISCO            N/A     24  11  56 E5          N/A  WCI  18
BIG SPRINGS      N/A     20  13  72 S5          N/A  WCI  14
LEWELLEN         N/A     17   5  60 S5          N/A  WCI  10
$$

...OBSERVATIONS IN NORTH CENTRAL NEBRASKA...

CITY           SKY/WX    TMP DP  RH WIND       PRES   REMARKS
VALENTINE      CLEAR     25   7  46 N8        30.15R WCI  16
THEDFORD       CLEAR     24  11  59 S6        30.14R WCI  16
AINSWORTH      PTCLDY    25  10  52 CALM      30.15R
O`NEILL        CLEAR     21  11  63 S5        30.19R WCI  15
ORD            PTCLDY    20   9  62 S9        30.20R WCI   9
BROKEN BOW     CLEAR     21  10  62 S8        30.18R WCI  11
BROWNLEE         N/A     25   6  43 CALM        N/A
SPRINGVIEW       N/A     24  11  56 CALM        N/A
BREWSTER         N/A     24  13  63 CALM        N/A
ROSE             N/A     29  17  61 CALM        N/A
NEWPORT          N/A     25  17  72 S6          N/A  WCI  18
SARGENT          N/A     22  13  66 CALM        N/A
COMSTOCK         N/A     24  15  68 S7          N/A  WCI  16
CHAMBERS         N/A     19   3  49 S3          N/A
EWING            N/A     22  13  66 S6          N/A  WCI  15
$$

...OBSERVATIONS IN SOUTHWEST NEBRASKA AND FAR NORTHEAST COLORADO...

CITY           SKY/WX    TMP DP  RH WIND       PRES   REMARKS
WRAY           CLOUDY    22  14  71 CALM      30.11R
IMPERIAL         N/A     15   8  73 SE6       30.12R WCI   6
OGALLALA       PTCLDY    20  11  68 S3        30.12S
NORTH PLATTE   PTCLDY    19   9  65 S6        30.17R WCI  11
MCCOOK         CLOUDY    25  13  60 S8        30.19R WCI  16
LEXINGTON      CLEAR     17  10  77 S6        30.21R WCI   8
PAXTON           N/A     18  11  72 S6          N/A  WCI  10
BRADY            N/A     18  10  69 CALM        N/A
GOTHENBURG       N/A     21  11  66 CALM        N/A
CALLAWAY         N/A     16  10  76 S7          N/A  WCI   6
$$

...NORTH PLATTE AREA...

CITY           SKY/WX    TMP DP  RH WIND       PRES   REMARKS
AIRPORT        PTCLDY    19   9  65 S6        30.17R WCI  11
DOWNTOWN         N/A     20  11  67 S3          N/A
$$

...SOME WEATHER OBSERVATIONS FROM AROUND THE REGION...

CITY           SKY/WX    TMP DP  RH WIND       PRES   REMARKS
DENVER         MOCLDY    16  10  77 S3        29.97R
LARAMIE        CLOUDY    15   9  76 SE18      29.85R WCI  -2
CHEYENNE       CLOUDY    20  11  68 E8        29.94R WCI  10
SCOTTSBLUFF    MOCLDY    24  11  57 E8        30.06R WCI  15
RAPID CITY     CLEAR     16   8  71 N13       30.14R WCI   2
PIERRE         CLEAR     15   7  70 NW7       30.20R WCI   5
WINNER         FAIR      21  -1  38 NW7       30.18R WCI  12
SIOUX FALLS    CLEAR     21  12  68 S13       30.21R WCI   9
OMAHA          FLURRIES  23  17  78 S10       30.36S WCI  12
GRAND ISLAND   CLEAR     17  11  77 S8        30.27R WCI   7
KANSAS CITY    CLOUDY    22  19  89 S7        30.37S WCI  13
WICHITA        CLOUDY    23  18  81 E6        30.32S WCI  16
HAYS           CLOUDY    19   9  63 S5        30.25S WCI  13
LIBERAL        CLOUDY    23  16  74 SE10      30.15S WCI  12
GOODLAND       CLOUDY    18  14  84 SE6       30.11R WCI  10
$$



USA.gov is the U.S. government's official web portal to all federal, state and local government web resources and services.